RJA166 LTFM-OJAI

Flight info

Callsign RJA166
Flight time 1h 46m
Altitude 37000
Route RATVU1E/36 RATVU UT35 AYT UM855 TOMBI DCT IDAKU L35 PIKOG L609 VOLFO N134 RALNA
Aircraft A320/M-SDE3FGHIRWY/LB1

Departure

Time 2026-05-04 12:08
Airport İstanbul Airport (LTFM)

Arrival

Time 2026-05-04 13:54
Airport Queen Alia International Airport (OJAI)
Time Latitude Longitude Altitude Speed Heading
2026-05-04 11:16 41.26426 28.74348 340 ft 0 kts 269°
2026-05-04 11:53 41.26426 28.74373 339 ft 3 kts 269°
2026-05-04 11:53 41.26426 28.74402 339 ft 4 kts 271°
2026-05-04 11:53 41.26424 28.74437 339 ft 4 kts 276°
2026-05-04 11:55 41.26409 28.74520 339 ft 0 kts 296°
2026-05-04 11:57 41.26410 28.74517 339 ft 1 kts 296°
2026-05-04 11:58 41.26419 28.74497 339 ft 4 kts 304°
2026-05-04 11:58 41.26442 28.74467 339 ft 6 kts 330°
2026-05-04 11:58 41.26483 28.74457 339 ft 6 kts 357°
2026-05-04 11:58 41.26534 28.74456 339 ft 8 kts
2026-05-04 11:59 41.26597 28.74457 339 ft 10 kts
2026-05-04 11:59 41.26669 28.74456 339 ft 11 kts 359°
2026-05-04 11:59 41.26753 28.74455 339 ft 13 kts 360°
2026-05-04 11:59 41.26849 28.74454 339 ft 13 kts 360°
2026-05-04 12:00 41.26910 28.74453 339 ft 9 kts 358°
2026-05-04 12:00 41.26981 28.74449 339 ft 11 kts 358°
2026-05-04 12:00 41.27027 28.74448 339 ft 0 kts 359°
2026-05-04 12:00 41.27031 28.74449 339 ft 2 kts
2026-05-04 12:01 41.27044 28.74455 339 ft 2 kts 39°
2026-05-04 12:01 41.27056 28.74478 339 ft 4 kts 68°
2026-05-04 12:02 41.27064 28.74980 339 ft 12 kts 89°
2026-05-04 12:03 41.27066 28.75103 339 ft 15 kts 88°
2026-05-04 12:03 41.27069 28.75248 339 ft 17 kts 89°
2026-05-04 12:03 41.27062 28.75353 339 ft 8 kts 134°
2026-05-04 12:03 41.27021 28.75360 339 ft 7 kts 179°
2026-05-04 12:04 41.26963 28.75360 339 ft 10 kts 179°
2026-05-04 12:04 41.26887 28.75362 339 ft 12 kts 179°
2026-05-04 12:04 41.26795 28.75361 339 ft 14 kts 178°
2026-05-04 12:04 41.26670 28.75364 339 ft 21 kts 178°
2026-05-04 12:05 41.26508 28.75370 339 ft 25 kts 179°
2026-05-04 12:05 41.26327 28.75373 339 ft 26 kts 181°
2026-05-04 12:05 41.26261 28.75374 339 ft 2 kts 154°
2026-05-04 12:05 41.26258 28.75380 339 ft 1 kts 126°
2026-05-04 12:06 41.26247 28.75399 339 ft 4 kts 126°
2026-05-04 12:06 41.26244 28.75429 339 ft 4 kts 88°
2026-05-04 12:06 41.26245 28.75483 339 ft 9 kts 88°
2026-05-04 12:06 41.26251 28.75574 339 ft 9 kts 70°
2026-05-04 12:07 41.26294 28.75604 339 ft 6 kts
2026-05-04 12:07 41.26314 28.75604 339 ft 3 kts
2026-05-04 12:07 41.26365 28.75604 339 ft 25 kts 359°
2026-05-04 12:07 41.26776 28.75594 340 ft 90 kts 359°
2026-05-04 12:08 41.27612 28.75572 344 ft 141 kts
2026-05-04 12:08 41.28607 28.75591 826 ft 142 kts 359°
2026-05-04 12:08 41.29589 28.75639 1432 ft 141 kts
2026-05-04 12:08 41.30522 28.76091 1941 ft 145 kts 22°
2026-05-04 12:09 41.31437 28.76807 2303 ft 160 kts 28°
2026-05-04 12:09 41.32422 28.77674 2659 ft 173 kts 30°
2026-05-04 12:09 41.33467 28.78619 3038 ft 189 kts 30°
2026-05-04 12:09 41.34614 28.79619 3416 ft 206 kts 28°
2026-05-04 12:10 41.35907 28.80645 3852 ft 224 kts 27°
2026-05-04 12:10 41.37257 28.81830 4394 ft 243 kts 37°
2026-05-04 12:10 41.38261 28.83708 5111 ft 259 kts 65°
2026-05-04 12:10 41.38518 28.86123 5957 ft 270 kts 85°
2026-05-04 12:11 41.38219 28.88637 6754 ft 282 kts 105°
2026-05-04 12:11 41.37122 28.90852 7521 ft 295 kts 134°
2026-05-04 12:11 41.35324 28.92224 8265 ft 304 kts 162°
2026-05-04 12:11 41.33264 28.92903 9003 ft 308 kts 165°
2026-05-04 12:12 41.31172 28.93630 9726 ft 312 kts 163°
2026-05-04 12:12 41.29051 28.94365 10401 ft 318 kts 164°
2026-05-04 12:12 41.26795 28.95101 10889 ft 331 kts 165°
2026-05-04 12:12 41.24506 28.95820 11311 ft 344 kts 165°
2026-05-04 12:13 41.22130 28.96564 11714 ft 357 kts 165°
2026-05-04 12:14 41.03101 28.98403 15373 ft 399 kts 175°
2026-05-04 12:15 41.00365 28.98586 15895 ft 402 kts 173°
2026-05-04 12:15 40.97598 28.99225 16427 ft 402 kts 163°
2026-05-04 12:15 40.94808 29.00203 16975 ft 404 kts 161°
2026-05-04 12:15 40.92185 29.01234 17470 ft 406 kts 160°
2026-05-04 12:16 40.89470 29.02313 17968 ft 409 kts 160°
2026-05-04 12:16 40.86708 29.03369 18461 ft 412 kts 161°
2026-05-04 12:16 40.83985 29.04356 18961 ft 414 kts 162°
2026-05-04 12:16 40.81200 29.05342 19441 ft 416 kts 162°
2026-05-04 12:17 40.78400 29.06335 19903 ft 419 kts 161°
2026-05-04 12:17 40.75578 29.07351 20375 ft 421 kts 161°
2026-05-04 12:17 40.73437 29.08128 20720 ft 422 kts 161°
2026-05-04 12:17 40.70594 29.09165 21164 ft 425 kts 161°
2026-05-04 12:18 40.67652 29.10239 21619 ft 427 kts 162°
2026-05-04 12:18 40.64782 29.11285 22041 ft 429 kts 162°
2026-05-04 12:18 40.61901 29.12329 22456 ft 431 kts 162°
2026-05-04 12:18 40.58998 29.13379 22861 ft 434 kts 161°
2026-05-04 12:19 40.56086 29.14432 23276 ft 435 kts 162°
2026-05-04 12:19 40.53145 29.15488 23645 ft 438 kts 162°
2026-05-04 12:19 40.50243 29.16528 24012 ft 439 kts 162°
2026-05-04 12:19 40.47290 29.17592 24370 ft 441 kts 162°
2026-05-04 12:20 40.44316 29.18661 24723 ft 443 kts 162°
2026-05-04 12:20 40.41334 29.19732 25059 ft 445 kts 162°
2026-05-04 12:20 40.38339 29.20808 25373 ft 447 kts 162°
2026-05-04 12:20 40.35331 29.21890 25652 ft 451 kts 161°
2026-05-04 12:21 40.32286 29.22989 25896 ft 454 kts 161°
2026-05-04 12:21 40.29240 29.24092 26184 ft 457 kts 161°
2026-05-04 12:21 40.26160 29.25199 26482 ft 459 kts 161°
2026-05-04 12:21 40.23070 29.26292 26793 ft 461 kts 161°
2026-05-04 12:22 40.19957 29.27387 27095 ft 463 kts 161°
2026-05-04 12:22 40.16844 29.28494 27384 ft 464 kts 161°
2026-05-04 12:22 40.13710 29.29619 27675 ft 466 kts 161°
2026-05-04 12:22 40.10581 29.30742 27943 ft 469 kts 161°
2026-05-04 12:23 40.07433 29.31865 28222 ft 470 kts 161°
2026-05-04 12:23 40.04254 29.32994 28497 ft 472 kts 161°
2026-05-04 12:23 40.01127 29.34100 28760 ft 474 kts 160°
2026-05-04 12:23 39.97945 29.35229 29017 ft 475 kts 161°
2026-05-04 12:24 39.94698 29.36381 29261 ft 478 kts 161°
2026-05-04 12:24 39.91486 29.37518 29513 ft 479 kts 160°
2026-05-04 12:24 39.88361 29.38999 29770 ft 477 kts 154°
2026-05-04 12:24 39.85337 29.40640 30014 ft 478 kts 152°
2026-05-04 12:25 39.82385 29.42305 30322 ft 477 kts 152°
2026-05-04 12:25 39.79344 29.44041 30666 ft 477 kts 152°
2026-05-04 12:25 39.77168 29.45263 30912 ft 476 kts 153°
2026-05-04 12:25 39.74079 29.46963 31238 ft 475 kts 153°
2026-05-04 12:26 39.71031 29.48615 31565 ft 475 kts 154°
2026-05-04 12:26 39.67989 29.50257 31889 ft 474 kts 154°
2026-05-04 12:26 39.64946 29.51908 32201 ft 473 kts 154°
2026-05-04 12:26 39.61889 29.53494 32522 ft 473 kts 155°
2026-05-04 12:27 39.58857 29.55027 32805 ft 472 kts 156°
2026-05-04 12:27 39.55796 29.56560 33117 ft 471 kts 156°
2026-05-04 12:27 39.52736 29.58080 33426 ft 471 kts 156°
2026-05-04 12:27 39.49681 29.59592 33721 ft 469 kts 156°
2026-05-04 12:28 39.46620 29.61115 33979 ft 469 kts 157°
2026-05-04 12:28 39.43575 29.62634 34272 ft 468 kts 157°
2026-05-04 12:28 39.40513 29.64151 34467 ft 469 kts 157°
2026-05-04 12:28 39.37428 29.65675 34685 ft 470 kts 157°
2026-05-04 12:29 39.34417 29.67174 34914 ft 470 kts 157°
2026-05-04 12:29 39.31320 29.68722 34987 ft 470 kts 158°
2026-05-04 12:29 39.25257 29.71730 34998 ft 470 kts 157°
2026-05-04 12:30 39.19151 29.74754 35013 ft 470 kts 158°
2026-05-04 12:30 39.12869 29.77859 35010 ft 471 kts 158°
2026-05-04 12:31 39.06743 29.80872 35009 ft 472 kts 158°
2026-05-04 12:31 39.00438 29.83977 35011 ft 472 kts 158°
2026-05-04 12:32 38.92142 29.88036 35008 ft 473 kts 159°
2026-05-04 12:33 38.85847 29.91107 35005 ft 474 kts 159°
2026-05-04 12:33 38.79605 29.94052 35001 ft 474 kts 160°
2026-05-04 12:34 38.73407 29.96988 35011 ft 476 kts 159°
2026-05-04 12:34 38.67208 29.99953 35008 ft 476 kts 159°
2026-05-04 12:35 38.60947 30.02925 35003 ft 477 kts 160°
2026-05-04 12:35 38.54704 30.05851 35009 ft 478 kts 161°
2026-05-04 12:36 38.48452 30.08770 35010 ft 478 kts 160°
2026-05-04 12:36 38.42216 30.11727 35008 ft 479 kts 160°
2026-05-04 12:37 38.35867 30.14703 35005 ft 479 kts 160°
2026-05-04 12:37 38.29613 30.17632 35019 ft 479 kts 161°
2026-05-04 12:38 38.23343 30.20484 35027 ft 479 kts 161°
2026-05-04 12:38 38.17076 30.23359 35017 ft 478 kts 161°
2026-05-04 12:39 38.10815 30.26235 35001 ft 480 kts 161°
2026-05-04 12:39 38.04529 30.29115 34996 ft 480 kts 161°
2026-05-04 12:40 37.98213 30.31989 34975 ft 479 kts 161°
2026-05-04 12:40 37.91938 30.34833 34984 ft 479 kts 161°
2026-05-04 12:41 37.85654 30.37679 34981 ft 479 kts 161°
2026-05-04 12:41 37.79412 30.40495 34987 ft 479 kts 161°
2026-05-04 12:42 37.73134 30.43319 34990 ft 479 kts 162°
2026-05-04 12:42 37.66821 30.46164 34987 ft 479 kts 162°
2026-05-04 12:43 37.60577 30.48969 34986 ft 479 kts 162°
2026-05-04 12:43 37.54295 30.51788 34978 ft 479 kts 162°
2026-05-04 12:44 37.47971 30.54620 34977 ft 479 kts 162°
2026-05-04 12:44 37.41684 30.57425 34971 ft 479 kts 162°
2026-05-04 12:45 37.35441 30.60220 34961 ft 479 kts 162°
2026-05-04 12:45 37.29158 30.63014 34947 ft 479 kts 162°
2026-05-04 12:46 37.22869 30.65809 34938 ft 479 kts 162°
2026-05-04 12:46 37.16576 30.68594 34926 ft 480 kts 163°
2026-05-04 12:47 37.10244 30.71404 34911 ft 479 kts 163°
2026-05-04 12:47 37.03953 30.74177 34906 ft 479 kts 163°
2026-05-04 12:48 36.97646 30.76963 34903 ft 479 kts 163°
2026-05-04 12:48 36.91298 30.79384 34890 ft 474 kts 175°
2026-05-04 12:49 36.84750 30.79840 34903 ft 470 kts 182°
2026-05-04 12:49 36.78169 30.79905 34920 ft 470 kts 183°
2026-05-04 12:50 36.71613 30.80101 34905 ft 470 kts 182°
2026-05-04 12:50 36.65067 30.80395 34898 ft 470 kts 182°
2026-05-04 12:51 36.58530 30.80625 34897 ft 470 kts 182°
2026-05-04 12:51 36.52015 30.80821 34898 ft 469 kts 182°
2026-05-04 12:52 36.45492 30.81053 34901 ft 469 kts 182°
2026-05-04 12:52 36.38968 30.81286 34902 ft 469 kts 182°
2026-05-04 12:53 36.33494 30.81485 34904 ft 469 kts 182°
2026-05-04 12:53 36.26978 30.81662 34900 ft 469 kts 183°
2026-05-04 12:54 36.20445 30.81877 34909 ft 469 kts 182°
2026-05-04 12:54 36.13916 30.82119 34910 ft 469 kts 182°
2026-05-04 12:55 36.07437 30.82421 34902 ft 471 kts 177°
2026-05-04 12:55 36.04260 30.83249 34892 ft 477 kts 165°
2026-05-04 12:55 36.01166 30.85074 34888 ft 484 kts 148°
2026-05-04 12:56 35.95861 30.90353 34917 ft 488 kts 143°
2026-05-04 12:56 35.90473 30.95946 34906 ft 490 kts 144°
2026-05-04 12:57 35.85099 31.01131 34904 ft 490 kts 146°
2026-05-04 12:57 35.79703 31.06396 34901 ft 491 kts 145°
2026-05-04 12:58 35.74368 31.11670 34906 ft 491 kts 145°
2026-05-04 12:58 35.69013 31.16915 34910 ft 491 kts 145°
2026-05-04 12:59 35.63616 31.22168 34904 ft 492 kts 146°
2026-05-04 12:59 35.58255 31.27405 34905 ft 492 kts 145°
2026-05-04 13:00 35.52902 31.32626 34913 ft 492 kts 146°
2026-05-04 13:00 35.47534 31.37844 34912 ft 492 kts 146°
2026-05-04 13:01 35.42202 31.43016 34912 ft 492 kts 146°
2026-05-04 13:01 35.36824 31.48219 34908 ft 492 kts 146°
2026-05-04 13:02 35.31342 31.53530 34900 ft 493 kts 146°
2026-05-04 13:02 35.25925 31.58764 34904 ft 493 kts 146°
2026-05-04 13:03 35.20491 31.63991 34903 ft 493 kts 146°
2026-05-04 13:03 35.15898 31.68408 34897 ft 493 kts 147°
2026-05-04 13:04 35.09585 31.74488 34891 ft 494 kts 147°
2026-05-04 13:04 35.05047 31.78837 34894 ft 494 kts 147°
2026-05-04 13:05 34.99589 31.84045 34899 ft 495 kts 148°
2026-05-04 13:05 34.94168 31.89234 34899 ft 496 kts 148°
2026-05-04 13:06 34.88732 31.94438 34902 ft 496 kts 148°
2026-05-04 13:06 34.83286 31.99612 34905 ft 497 kts 149°
2026-05-04 13:07 34.77842 32.04784 34907 ft 495 kts 149°
2026-05-04 13:07 34.72375 32.09979 34917 ft 495 kts 149°
2026-05-04 13:08 34.66931 32.15132 34915 ft 496 kts 149°
2026-05-04 13:08 34.61479 32.20280 34912 ft 496 kts 150°
2026-05-04 13:09 34.56024 32.25434 34906 ft 497 kts 150°
2026-05-04 13:09 34.50554 32.30595 34907 ft 498 kts 150°
2026-05-04 13:10 34.45084 32.35740 34905 ft 498 kts 150°
2026-05-04 13:10 34.39602 32.40892 34910 ft 497 kts 150°
2026-05-04 13:11 34.34062 32.46093 34916 ft 497 kts 150°
2026-05-04 13:11 34.28368 32.51421 34911 ft 497 kts 150°
2026-05-04 13:12 34.22888 32.56535 34917 ft 497 kts 150°
2026-05-04 13:12 34.17423 32.61653 34913 ft 497 kts 150°
2026-05-04 13:13 34.11911 32.66773 34912 ft 497 kts 150°
2026-05-04 13:13 34.06323 32.71599 34915 ft 491 kts 156°
2026-05-04 13:14 34.00536 32.75924 34913 ft 488 kts 158°
2026-05-04 13:14 33.94734 32.80196 34925 ft 489 kts 158°
2026-05-04 13:15 33.88948 32.84496 34924 ft 489 kts 158°
2026-05-04 13:15 33.83157 32.88825 34929 ft 489 kts 158°
2026-05-04 13:16 33.77382 32.93113 34926 ft 488 kts 158°
2026-05-04 13:16 33.71593 32.97376 34922 ft 487 kts 158°
2026-05-04 13:17 33.65783 33.01668 34920 ft 487 kts 158°
2026-05-04 13:17 33.60005 33.05942 34919 ft 487 kts 158°
2026-05-04 13:18 33.55052 33.09579 34926 ft 486 kts 159°
2026-05-04 13:18 33.49213 33.13870 34936 ft 486 kts 159°
2026-05-04 13:19 33.43464 33.18100 34945 ft 485 kts 159°
2026-05-04 13:19 33.37708 33.22324 34944 ft 485 kts 159°
2026-05-04 13:20 33.31957 33.26534 34816 ft 481 kts 159°
2026-05-04 13:20 33.29108 33.28620 34356 ft 477 kts 159°
2026-05-04 13:20 33.26273 33.30691 33603 ft 480 kts 159°
2026-05-04 13:20 33.23399 33.32780 32578 ft 488 kts 159°
2026-05-04 13:21 33.20862 33.34608 31529 ft 496 kts 160°
2026-05-04 13:21 33.17874 33.36736 30519 ft 502 kts 160°
2026-05-04 13:21 33.14864 33.38945 29909 ft 499 kts 159°
2026-05-04 13:21 33.12024 33.41071 29573 ft 490 kts 158°
2026-05-04 13:22 33.09098 33.43271 29297 ft 478 kts 159°
2026-05-04 13:22 33.06308 33.45324 29062 ft 465 kts 160°
2026-05-04 13:22 33.03920 33.47034 28948 ft 464 kts 160°
2026-05-04 13:23 32.98321 33.51004 28961 ft 465 kts 160°
2026-05-04 13:23 32.92804 33.54997 28973 ft 466 kts 160°
2026-05-04 13:24 32.87237 33.58943 28976 ft 458 kts 166°
2026-05-04 13:24 32.84262 33.60317 28979 ft 441 kts 176°
2026-05-04 13:24 32.81307 33.61134 28994 ft 432 kts 181°
2026-05-04 13:25 32.72269 33.62843 29009 ft 427 kts 184°
2026-05-04 13:25 32.66384 33.63853 29010 ft 427 kts 184°
2026-05-04 13:26 32.63320 33.64421 28841 ft 431 kts 181°
2026-05-04 13:26 32.60429 33.65663 28530 ft 457 kts 163°
2026-05-04 13:26 32.57809 33.68049 28280 ft 484 kts 143°
2026-05-04 13:26 32.55778 33.71478 28049 ft 503 kts 126°
2026-05-04 13:27 32.54216 33.75126 27852 ft 505 kts 123°
2026-05-04 13:27 32.52693 33.78873 27622 ft 503 kts 123°
2026-05-04 13:27 32.51132 33.82557 27386 ft 500 kts 125°
2026-05-04 13:27 32.49483 33.86179 27140 ft 496 kts 127°
2026-05-04 13:28 32.47813 33.89686 26903 ft 493 kts 127°
2026-05-04 13:28 32.46103 33.93269 26665 ft 492 kts 127°
2026-05-04 13:28 32.44453 33.96804 26324 ft 490 kts 127°
2026-05-04 13:28 32.43377 33.99152 25933 ft 488 kts 126°
2026-05-04 13:29 32.41763 34.02708 25120 ft 492 kts 126°
2026-05-04 13:29 32.40131 34.06294 24250 ft 496 kts 126°
2026-05-04 13:29 32.38474 34.09916 23600 ft 493 kts 126°
2026-05-04 13:29 32.36841 34.13466 22981 ft 490 kts 126°
2026-05-04 13:30 32.35235 34.16940 22466 ft 484 kts 126°
2026-05-04 13:30 32.33628 34.20412 21892 ft 480 kts 126°
2026-05-04 13:30 32.32027 34.23868 21304 ft 476 kts 126°
2026-05-04 13:30 32.30454 34.27269 20909 ft 467 kts 126°
2026-05-04 13:31 32.28899 34.30620 20313 ft 463 kts 126°
2026-05-04 13:31 32.27345 34.33962 19625 ft 462 kts 125°
2026-05-04 13:31 32.25897 34.37085 19251 ft 454 kts 125°
2026-05-04 13:31 32.24272 34.40595 18715 ft 447 kts 125°
2026-05-04 13:32 32.22733 34.43906 17986 ft 447 kts 126°
2026-05-04 13:32 32.21240 34.47113 17507 ft 441 kts 125°
2026-05-04 13:32 32.19779 34.50248 17168 ft 431 kts 125°
2026-05-04 13:32 32.18315 34.53387 16913 ft 419 kts 125°
2026-05-04 13:33 32.16949 34.56383 16671 ft 412 kts 121°
2026-05-04 13:33 32.16006 34.59645 16417 ft 417 kts 108°
2026-05-04 13:33 32.15394 34.63037 16093 ft 415 kts 103°
2026-05-04 13:33 32.14927 34.66293 15740 ft 411 kts 102°
2026-05-04 13:34 32.14478 34.69513 15382 ft 407 kts 102°
2026-05-04 13:34 32.13941 34.73054 15095 ft 403 kts 103°
2026-05-04 13:34 32.13395 34.76336 15042 ft 402 kts 104°
2026-05-04 13:34 32.12825 34.79613 15038 ft 402 kts 105°
2026-05-04 13:35 32.12367 34.82256 15045 ft 402 kts 104°
2026-05-04 13:35 32.11367 34.88155 15039 ft 402 kts 104°
2026-05-04 13:35 32.10716 34.91351 15044 ft 400 kts 111°
2026-05-04 13:36 32.09877 34.94472 15049 ft 399 kts 112°
2026-05-04 13:36 32.08979 34.97566 15029 ft 399 kts 114°
2026-05-04 13:36 32.08047 35.00688 14807 ft 396 kts 114°
2026-05-04 13:36 32.07143 35.03749 14533 ft 394 kts 113°
2026-05-04 13:37 32.06262 35.06789 14267 ft 392 kts 113°
2026-05-04 13:37 32.05372 35.09906 13981 ft 390 kts 112°
2026-05-04 13:37 32.04514 35.12926 13706 ft 386 kts 112°
2026-05-04 13:37 32.03661 35.15921 13462 ft 384 kts 112°
2026-05-04 13:38 32.02802 35.18906 13224 ft 382 kts 112°
2026-05-04 13:38 32.01932 35.21890 12942 ft 379 kts 112°
2026-05-04 13:38 32.01079 35.24795 12682 ft 377 kts 112°
2026-05-04 13:38 32.00216 35.27739 12433 ft 376 kts 112°
2026-05-04 13:39 31.99377 35.30644 12154 ft 374 kts 112°
2026-05-04 13:39 31.98553 35.33529 11813 ft 368 kts 112°
2026-05-04 13:39 31.97748 35.36358 11577 ft 361 kts 112°
2026-05-04 13:39 31.96918 35.39250 11342 ft 358 kts 112°
2026-05-04 13:40 31.96098 35.42091 11126 ft 364 kts 112°
2026-05-04 13:40 31.95297 35.44922 10891 ft 365 kts 109°
2026-05-04 13:40 31.94618 35.47792 10706 ft 363 kts 107°
2026-05-04 13:40 31.93991 35.50679 10590 ft 363 kts 107°
2026-05-04 13:41 31.93377 35.53560 10495 ft 362 kts 108°
2026-05-04 13:41 31.92498 35.56402 10405 ft 359 kts 116°
2026-05-04 13:41 31.91495 35.59088 10311 ft 357 kts 118°
2026-05-04 13:42 31.89406 35.64353 10080 ft 355 kts 118°
2026-05-04 13:42 31.88378 35.66993 9969 ft 355 kts 118°
2026-05-04 13:42 31.87369 35.69637 9848 ft 354 kts 117°
2026-05-04 13:42 31.86372 35.72285 9741 ft 353 kts 117°
2026-05-04 13:43 31.85374 35.74923 9637 ft 353 kts 117°
2026-05-04 13:43 31.84373 35.77550 9549 ft 352 kts 117°
2026-05-04 13:43 31.83341 35.80246 9443 ft 351 kts 118°
2026-05-04 13:43 31.82351 35.82877 9362 ft 352 kts 114°
2026-05-04 13:44 31.81868 35.85726 9234 ft 352 kts 91°
2026-05-04 13:44 31.82085 35.88629 9138 ft 340 kts 82°
2026-05-04 13:44 31.82471 35.91326 9034 ft 329 kts 80°
2026-05-04 13:44 31.82870 35.93929 9009 ft 319 kts 80°
2026-05-04 13:45 31.83224 35.96495 9012 ft 318 kts 82°
2026-05-04 13:45 31.83521 35.99070 9015 ft 315 kts 83°
2026-05-04 13:45 31.83772 36.01576 8934 ft 304 kts 84°
2026-05-04 13:45 31.83947 36.03351 8779 ft 307 kts 84°
2026-05-04 13:46 31.84213 36.05866 8540 ft 313 kts 83°
2026-05-04 13:46 31.84506 36.08493 8218 ft 315 kts 82°
2026-05-04 13:46 31.84801 36.11048 7861 ft 316 kts 83°
2026-05-04 13:46 31.85091 36.13613 7423 ft 318 kts 83°
2026-05-04 13:47 31.85372 36.16210 6947 ft 315 kts 83°
2026-05-04 13:47 31.85637 36.18756 6504 ft 311 kts 85°
2026-05-04 13:47 31.85691 36.21280 6020 ft 307 kts 102°
2026-05-04 13:47 31.84921 36.23528 5693 ft 289 kts 132°
2026-05-04 13:48 31.83468 36.24963 5498 ft 262 kts 162°
2026-05-04 13:48 31.81774 36.25404 5337 ft 241 kts 187°
2026-05-04 13:48 31.80184 36.25160 5311 ft 223 kts 198°
2026-05-04 13:48 31.78735 36.24702 5310 ft 210 kts 208°
2026-05-04 13:49 31.77429 36.23946 5302 ft 207 kts 219°
2026-05-04 13:49 31.76496 36.22727 5301 ft 199 kts 247°
2026-05-04 13:49 31.76135 36.21226 5319 ft 184 kts 260°
2026-05-04 13:49 31.75943 36.19791 5331 ft 172 kts 261°
2026-05-04 13:50 31.75762 36.18424 5297 ft 169 kts 260°
2026-05-04 13:50 31.75562 36.17070 5135 ft 168 kts 260°
2026-05-04 13:50 31.75365 36.15714 4978 ft 168 kts 260°
2026-05-04 13:50 31.75178 36.14404 4800 ft 157 kts 261°
2026-05-04 13:51 31.75002 36.13178 4573 ft 148 kts 261°
2026-05-04 13:51 31.74836 36.12029 4402 ft 135 kts 260°
2026-05-04 13:51 31.74684 36.10968 4237 ft 131 kts 261°
2026-05-04 13:51 31.74531 36.09897 4039 ft 131 kts 261°
2026-05-04 13:52 31.74228 36.07786 3648 ft 131 kts 261°
2026-05-04 13:52 31.74077 36.06734 3456 ft 130 kts 260°
2026-05-04 13:52 31.73928 36.05689 3282 ft 130 kts 261°
2026-05-04 13:53 31.73778 36.04636 3065 ft 131 kts 261°
2026-05-04 13:53 31.73635 36.03595 2868 ft 128 kts 261°
2026-05-04 13:53 31.73477 36.02560 2709 ft 126 kts 260°
2026-05-04 13:54 31.73189 36.00531 2426 ft 129 kts 261°
2026-05-04 13:54 31.73057 35.99632 2411 ft 85 kts 261°
2026-05-04 13:54 31.72926 35.98720 2411 ft 47 kts 260°
2026-05-04 13:55 31.72875 35.98358 2411 ft 41 kts 259°
2026-05-04 13:55 31.72825 35.98181 2411 ft 4 kts 158°
2026-05-04 13:55 31.72786 35.98195 2411 ft 8 kts 164°
2026-05-04 13:56 31.72716 35.98213 2411 ft 11 kts 171°
2026-05-04 13:56 31.72629 35.98231 2411 ft 9 kts 171°
2026-05-04 13:56 31.72592 35.98345 2411 ft 12 kts 79°
2026-05-04 13:57 31.72608 35.98450 2411 ft 14 kts 79°
2026-05-04 13:57 31.72626 35.98577 2411 ft 17 kts 82°
2026-05-04 13:58 31.72695 35.99065 2411 ft 24 kts 80°
2026-05-04 13:58 31.72730 35.99336 2411 ft 8 kts 107°
2026-05-04 13:58 31.72676 35.99369 2411 ft 11 kts 172°
2026-05-04 13:59 31.72594 35.99384 2411 ft 13 kts 171°
2026-05-04 13:59 31.72492 35.99404 2411 ft 16 kts 171°
2026-05-04 13:59 31.72256 35.99440 2411 ft 14 kts 165°
2026-05-04 14:00 31.72158 35.99466 2411 ft 10 kts 169°
2026-05-04 14:00 31.72090 35.99425 2411 ft 7 kts 264°
2026-05-04 14:00 31.72083 35.99366 2411 ft 8 kts 261°
2026-05-04 14:01 31.72072 35.99289 2411 ft 11 kts 258°
2026-05-04 14:01 31.72044 35.99197 2411 ft 13 kts 248°
2026-05-04 14:01 31.72010 35.99020 2411 ft 13 kts 260°
2026-05-04 14:02 31.72003 35.98969 2411 ft 1 kts 281°
2026-05-04 14:02 31.72008 35.98964 2411 ft 1 kts 342°
2026-05-04 14:02 31.72025 35.98959 2411 ft 4 kts 346°
2026-05-04 14:02 31.72049 35.98953 2411 ft 3 kts 350°
2026-05-04 14:03 31.72067 35.98950 2411 ft 3 kts 350°
2026-05-04 14:03 31.72080 35.98947 2411 ft 0 kts 350°